Weather in Washington

United States     38°53′58″N   77°02′11″W
temp.,
°C
wind,
m/s
gust,
m/s
humid.,
%
clouds,
%
prec.,
mm/h
press.,
hPa
HPBL,
m
12 may, wed
wed1223:00+12nnw51046100 0.0 1022865
02:00+9nnw3104677 0.0 1024752
05:00+7nw295564 0.0 1024466
08:00+7nw4956100 0.0 1026657
11:00+12n4650100 0.0 10261264
14:00+16n464127 0.0 10242040
17:00+17n453841 0.0 10232176
20:00+13wnw115210 0.0 102311
13 may, thu
thu1323:00+10nnw4107839 0.2 1025250
02:00+10n411685 0.2 1025342
05:00+8n39714 0.0 1026232
08:00+10nnw36550 0.0 1027267
11:00+16nnw35350 0.0 10271764
14:00+19nnw453334 0.0 10252521
17:00+18nnw443623 0.0 10241521
20:00+14nnw225116 0.0 102437
14 may, fri
fri1423:00+12nw225583 0.0 102558
02:00+10nw236549 0.0 102573
05:00+10nw246490 0.0 102590
08:00+13nnw245730 0.0 1027206
11:00+17nnw334470 0.0 10261522
14:00+20nnw323280 0.0 10252532
17:00+19nne323494 0.0 10242307
20:00+15sse115369 0.0 102418
15 may, sat
sat1523:00+14w116047 0.0 102513
02:00+12nw11673 0.0 102514
05:00+10nw22745 0.0 102640
08:00+13wnw22614 0.0 1027193
11:00+21nw11385 0.0 10261428
14:00+23se0227100 0.0 10242935
17:00+22se3230100 0.0 10232323
20:00+18sse124545 0.0 102445
16 may, sun
sun1623:00+14sw256016 0.0 1025122
02:00+13sw12634 0.0 102563
05:00+11wnw227514 0.0 102656
08:00+14sw116752 0.0 1027239
11:00+20ssw2346100 0.0 10261180
14:00+22ssw2338100 0.0 10242408
17:00+20se2450100 0.0 1023204
20:00+16ese1179100 0.4 102425